Stations météo

Publicité
Tholey, Allemagne (10706): Température de l'air & dewpoint: 13.03.2019 06:00:00 - 19.03.2019 06:00:00 (CET)Tholey, Allemagne (10706): Température de l'air 5cm & Température de l'air -5cm: 13.03.2019 06:00:00 - 19.03.2019 06:00:00 (CET)Tholey, Allemagne (10706): Température de l'air -20cm & Température de l'air -100cm: 13.03.2019 06:00:00 - 19.03.2019 06:00:00 (CET)Tholey, Allemagne (10706): Vitesse du vent & gusts: 13.03.2019 06:00:00 - 19.03.2019 06:00:00 (CET)Tholey, Allemagne (10706): Direction du vent: 13.03.2019 06:00:00 - 19.03.2019 06:00:00 (CET)Tholey, Allemagne (10706): reduced air pressure: 13.03.2019 06:00:00 - 19.03.2019 06:00:00 (CET)Tholey, Allemagne (10706): visibility: 13.03.2019 06:00:00 - 19.03.2019 06:00:00 (CET)Tholey, Allemagne (10706): Ensoleillement: 13.03.2019 06:00:00 - 19.03.2019 06:00:00 (CET)Tholey, Allemagne (10706): Quantités de précipitations: 13.03.2019 06:00:00 - 19.03.2019 06:00:00 (CET)
Date & Time tt [°C] td [°C] tt 5cm [°C] tt -5cm [°C] tt -20cm [°C] tt -100cm [°C] ff [km/h] ff [knt] fx [km/h] fx [knt] dd ppp [hPa] vv [km] sd [min] rr [mm]
19.03.2019 06:00:00 0,8 -2,0 -2,3 1,3 4,6 6,4 8 4 12 6 NE 1027,5 48 0 0,0
19.03.2019 05:00:00 1,8 -1,4 -2,0 1,5 4,7 6,4 7 4 10 5 NNE 1026,4 43 0 0,0
19.03.2019 04:00:00 0,8 -0,8 -0,3 1,9 4,9 6,4 7 4 13 7 NE 1026,1 20 0 0,0
19.03.2019 03:00:00 2,4 -0,8 -0,6 2,0 5,1 6,4 8 4 10 5 N 1025,6 48 0 0,0
19.03.2019 02:00:00 2,6 0,1 -0,1 2,4 5,3 6,4 4 2 6 3 N 1025,6 62 0 0,0
19.03.2019 01:00:00 1,5 0,4 -0,9 2,7 5,5 6,4 4 2 5 3 SE 1025,5 29 0 0,0
19.03.2019 00:00:00 1,8 0,5 -0,5 3,2 5,7 6,4 4 2 9 5 S 1025,3 33 0 0,0
18.03.2019 23:00:00 2,6 0,6 0,1 3,8 5,8 6,4 6 3 8 4 ESE 1024,8 66 0 0,0
18.03.2019 22:00:00 3,0 0,8 1,7 4,4 5,9 6,4 4 2 31 17 NW 1024,6 59 0 0,0
18.03.2019 21:00:00 3,3 1,2 2,6 4,8 6,1 6,4 20 11 30 16 N 1024,1 36 0 0,1
18.03.2019 20:00:00 3,8 1,7 2,8 5,2 6,2 6,4 9 5 14 7 W 1023,1 35 0 0,0
18.03.2019 19:00:00 3,8 1,4 2,4 5,8 6,2 6,4 9 5 17 9 W 1022,3 70 29 0,0
18.03.2019 18:00:00 4,8 1,6 4,5 7,3 6,1 6,4 12 6 24 13 SW 1021,6 70 47 0,0
18.03.2019 17:00:00 5,1 1,9 6,0 7,8 5,9 6,4 12 7 39 21 WSW 1021,1 70 6 0,5
18.03.2019 16:00:00 6,6 0,1 7,0 10,3 5,5 6,4 23 12 41 22 WSW 1020,4 40 52 0,0
18.03.2019 15:00:00 7,5 -0,3 9,4 10,3 5,1 6,4 24 13 38 20 W 1019,9 38 40 0,0
18.03.2019 14:00:00 6,7 1,1 10,3 9,0 4,7 6,4 15 8 44 24 W 1020,4 42 36 0,0
18.03.2019 13:00:00 6,1 0,5 10,5 8,1 4,4 6,4 19 10 31 17 W 1020,5 51 30 0,0
18.03.2019 12:00:00 4,6 0,5 6,0 6,5 4,3 6,4 18 10 29 16 W 1020,7 40 22 0,0
18.03.2019 11:00:00 3,4 0,7 4,1 3,9 4,2 6,4 16 9 29 16 WSW 1020,6 22 0 0,0
18.03.2019 10:00:00 2,5 1,2 3,1 3,3 4,2 6,4 19 10 31 17 WSW 1020,0 10 0 0,0
18.03.2019 09:00:00 1,9 0,6 2,0 2,7 4,2 6,4 16 9 32 18 W 1019,6 17 0 0,0
18.03.2019 08:00:00 1,6 0,4 1,6 2,4 4,3 6,4 17 9 31 17 WSW 1018,9 16 0 0,0
18.03.2019 07:00:00 1,3 0,1 1,1 2,2 4,4 6,4 17 9 25 14 W 1018,3 16 0 0,0
18.03.2019 06:00:00 1,1 0,0 1,0 2,1 4,5 6,4 16 8 30 16 W 1017,8 18 0 0,0
18.03.2019 05:00:00 1,2 -0,2 1,0 2,1 4,6 6,4 21 11 34 18 WSW 1016,8 24 0 0,0
18.03.2019 04:00:00 1,3 -0,1 1,0 2,1 4,7 6,4 23 12 33 18 WSW 1016,2 30 0 0,0
18.03.2019 03:00:00 0,6 -0,1 0,3 1,9 4,9 6,4 15 8 21 12 W 1016,4 16 0 0,0
18.03.2019 02:00:00 0,6 0,0 0,2 1,8 5,0 6,4 8 4 21 11 WSW 1016,3 19 0 0,0
18.03.2019 01:00:00 1,2 0,0 0,5 2,2 5,2 6,4 13 7 19 10 W 1015,8 43 0 0,0
18.03.2019 00:00:00 1,5 0,0 0,7 2,2 5,4 6,4 14 8 24 13 WSW 1015,9 70 0 0,0
17.03.2019 23:00:00 1,6 0,2 0,3 2,6 5,6 6,4 16 9 24 13 W 1015,5 58 0 0,0
17.03.2019 22:00:00 2,4 0,7 1,5 3,3 5,8 6,3 19 11 31 17 WSW 1014,7 70 0 0,0
17.03.2019 21:00:00 2,5 0,8 1,9 3,4 6,0 6,3 22 12 34 18 W 1013,7 36 0 0,0
17.03.2019 20:00:00 3,2 0,4 2,1 4,0 6,1 6,3 23 12 42 23 W 1012,8 70 0 0,0
17.03.2019 19:00:00 3,7 0,5 2,7 4,8 6,2 6,3 23 12 40 21 W 1011,3 70 1 0,0
17.03.2019 18:00:00 4,6 1,9 4,1 6,0 6,2 6,3 23 12 37 20 W 1010,0 59 19 0,0
17.03.2019 17:00:00 4,0 1,2 3,6 6,7 6,1 6,3 23 13 64 34 W 1009,6 70 11 0,5
17.03.2019 16:00:00 6,4 3,1 7,6 7,9 6,0 6,3 29 16 46 25 W 1008,1 41 32 0,2
17.03.2019 15:00:00 5,1 3,2 5,5 6,7 5,9 6,3 23 12 38 20 WSW 1008,0 70 2 0,0
17.03.2019 14:00:00 4,5 3,0 4,8 6,3 5,9 6,3 17 9 32 17 WSW 1007,7 70 0 0,1
17.03.2019 13:00:00 4,0 3,0 4,0 6,0 5,9 6,3 21 11 41 22 W 1007,7 15 0 0,9
17.03.2019 12:00:00 4,1 2,5 3,8 6,2 5,8 6,3 25 14 58 32 WNW 1006,7 9 0 2,1
17.03.2019 11:00:00 6,7 5,8 6,5 6,4 5,7 6,3 29 16 48 26 WSW 1004,7 5 0 1,6
17.03.2019 10:00:00 6,4 5,4 6,2 6,1 5,7 6,3 30 16 46 25 WSW 1004,6 9 0 0,3
17.03.2019 09:00:00 7,3 3,7 6,8 5,7 5,7 6,3 33 18 56 30 WSW 1004,2 46 0 0,0
17.03.2019 08:00:00 7,3 3,4 6,6 5,5 5,7 6,3 34 19 62 34 WSW 1003,9 46 0 0,0
17.03.2019 07:00:00 7,6 3,6 6,8 5,4 5,7 6,3 35 19 52 28 WSW 1003,7 56 0 0,0
17.03.2019 06:00:00 7,7 3,7 6,8 5,3 5,7 6,3 37 20 58 31 WSW 1003,8 70 0 0,0
17.03.2019 05:00:00 7,7 4,0 6,4 5,1 5,7 6,3 31 17 51 28 WSW 1004,0 70 0 0,0
17.03.2019 04:00:00 7,9 4,1 6,5 4,8 5,8 6,3 31 17 48 26 WSW 1004,2 70 0 0,0
17.03.2019 03:00:00 7,5 3,6 6,1 4,1 5,9 6,3 26 14 35 19 WSW 1005,1 70 0 0,0
17.03.2019 02:00:00 6,3 2,9 4,3 3,9 6,1 6,3 21 12 29 16 WSW 1006,3 70 0 0,0
17.03.2019 01:00:00 5,7 3,5 3,6 4,1 6,2 6,3 17 9 26 14 WSW 1006,9 66 0 0,0
17.03.2019 00:00:00 5,8 3,7 3,8 4,3 6,4 6,2 16 8 22 12 WSW 1007,6 52 0 0,0
16.03.2019 23:00:00 5,7 3,5 3,7 4,6 6,6 6,2 15 8 23 12 W 1008,4 60 0 0,0
16.03.2019 22:00:00 6,3 3,7 4,5 4,9 6,8 6,2 19 10 23 13 W 1008,9 70 0 0,0
16.03.2019 21:00:00 6,7 3,6 4,7 5,4 6,9 6,2 17 9 29 16 W 1009,3 70 0 0,0
16.03.2019 20:00:00 7,1 3,5 5,4 6,1 7,0 6,2 22 12 40 21 W 1009,6 70 0 0,0
16.03.2019 19:00:00 8,2 3,5 6,7 7,1 7,0 6,2 37 20 54 29 WSW 1009,9 70 0 0,0
16.03.2019 18:00:00 9,0 4,5 8,3 7,8 7,0 6,2 26 14 49 27 WSW 1010,5 70 2 0,0
16.03.2019 17:00:00 9,0 3,7 8,7 7,9 7,0 6,2 41 22 59 32 WSW 1011,0 70 3 0,0
16.03.2019 16:00:00 8,2 4,0 8,2 7,6 7,0 6,2 35 19 65 35 W 1012,0 70 0 0,0
16.03.2019 15:00:00 7,9 4,2 7,6 7,7 7,0 6,2 36 19 61 33 WSW 1012,7 70 0 0,0
16.03.2019 14:00:00 7,9 4,2 7,0 7,8 6,9 6,2 40 21 64 35 W 1013,5 56 0 0,0
16.03.2019 13:00:00 7,8 4,2 7,2 8,1 6,9 6,2 46 25 66 36 WSW 1013,9 70 0 0,2
16.03.2019 12:00:00 7,2 6,6 7,2 8,4 6,8 6,2 34 18 66 35 WSW 1014,3 7 0 0,3
16.03.2019 11:00:00 7,2 6,9 7,3 7,8 6,8 6,2 29 16 50 27 W 1014,7 3,1 0 0,2
16.03.2019 10:00:00 7,4 6,4 7,1 7,5 6,8 6,2 35 19 51 28 W 1014,8 43 0 0,1
16.03.2019 09:00:00 7,5 6,2 6,9 7,4 6,9 6,2 40 22 62 34 W 1014,8 7 0 0,0
16.03.2019 08:00:00 7,8 6,6 7,1 7,6 6,9 6,2 40 21 67 36 WSW 1014,3 11 0 0,2
16.03.2019 07:00:00 7,8 7,4 7,5 7,8 6,9 6,2 37 20 60 33 WSW 1014,0 2,8 0 0,3
16.03.2019 06:00:00 8,4 8,0 8,0 7,9 6,8 6,2 38 20 60 33 W 1013,3 3,3 0 0,5
16.03.2019 05:00:00 8,9 7,5 8,1 7,9 6,8 6,2 36 20 67 36 W 1013,3 9 0 0,1
16.03.2019 04:00:00 8,9 7,8 8,2 8,0 6,8 6,2 37 20 61 33 W 1013,2 7 0 0,0
16.03.2019 03:00:00 9,0 8,0 8,3 8,1 6,8 6,2 35 19 63 34 W 1013,6 7 0 0,1
16.03.2019 02:00:00 9,0 8,0 8,4 8,1 6,8 6,2 36 20 65 35 W 1013,3 15 0 0,0
16.03.2019 01:00:00 9,1 8,3 8,4 8,2 6,7 6,2 41 22 66 36 W 1013,2 8 0 0,3
16.03.2019 00:00:00 9,0 8,5 8,6 8,2 6,7 6,2 41 22 65 35 W 1013,1 3,9 0 1,2
15.03.2019 23:00:00 9,1 8,8 8,8 8,3 6,6 6,2 33 18 60 32 W 1012,9 4,2 0 1,7
15.03.2019 22:00:00 9,2 8,8 8,9 8,3 6,5 6,2 38 21 61 33 W 1012,3 2,7 0 1,2
15.03.2019 21:00:00 9,2 8,9 8,9 8,3 6,4 6,2 39 21 71 38 W 1011,5 2,8 0 1,0
15.03.2019 20:00:00 9,3 9,0 9,0 8,2 6,3 6,2 36 20 56 30 W 1010,9 2,3 0 1,4
15.03.2019 19:00:00 9,3 8,9 9,0 8,2 6,1 6,2 37 20 61 33 W 1010,5 2,0 0 1,2
15.03.2019 18:00:00 9,4 8,9 8,9 8,2 6,0 6,2 37 20 57 31 W 1010,3 7 0 0,9
15.03.2019 17:00:00 9,3 8,7 8,9 8,3 5,8 6,2 37 20 59 32 W 1010,3 2,8 0 0,2
15.03.2019 16:00:00 9,3 8,6 8,9 8,3 5,6 6,2 37 20 62 33 W 1010,2 4,2 0 0,4
15.03.2019 15:00:00 9,3 8,4 8,9 8,1 5,5 6,2 38 21 58 31 W 1010,1 7 0 0,3
15.03.2019 14:00:00 9,3 8,5 8,9 8,1 5,2 6,2 32 17 73 39 W 1010,2 4,7 0 0,4
15.03.2019 13:00:00 9,5 8,6 9,1 7,9 5,0 6,2 38 20 60 32 W 1009,3 7 0 0,2
15.03.2019 12:00:00 9,5 8,5 8,9 7,4 4,8 6,2 33 18 54 29 W 1009,0 10 0 0,3
15.03.2019 11:00:00 8,9 8,3 8,5 6,7 4,7 6,2 33 18 48 26 W 1008,8 8 0 0,5
15.03.2019 10:00:00 7,7 7,5 7,5 5,8 4,6 6,2 31 17 45 25 W 1008,7 9 0 1,9
15.03.2019 09:00:00 6,2 6,0 6,0 5,3 4,5 6,3 19 10 34 18 W 1009,0 0,3 0 2,7
15.03.2019 08:00:00 5,9 5,7 5,7 5,0 4,5 6,3 24 13 35 19 WSW 1009,3 2,7 0 1,9
15.03.2019 07:00:00 5,8 5,5 5,5 4,8 4,4 6,3 26 14 38 20 WSW 1009,7 2,6 0 1,1
15.03.2019 06:00:00 5,7 5,2 5,3 4,6 4,4 6,3 24 13 38 21 W 1010,0 4,2 0 0,1
15.03.2019 05:00:00 5,5 4,7 5,2 4,4 4,3 6,3 23 13 34 19 W 1010,5 9 0 0,0
15.03.2019 04:00:00 5,5 4,7 5,0 4,1 4,3 6,3 23 13 36 19 W 1010,7 11 0 0,0
15.03.2019 03:00:00 4,9 4,4 4,4 3,7 4,4 6,3 15 8 27 15 W 1011,0 7 0 0,0
15.03.2019 02:00:00 4,8 3,9 4,2 3,5 4,4 6,3 14 8 33 18 WSW 1011,1 16 0 0,0
15.03.2019 01:00:00 5,3 3,9 3,9 3,3 4,5 6,3 19 10 36 20 W 1010,3 28 0 0,0
15.03.2019 00:00:00 5,0 3,3 3,3 3,5 4,5 6,3 18 10 44 24 W 1009,9 39 0 0,0
14.03.2019 23:00:00 6,3 3,0 4,8 3,8 4,6 6,3 31 17 47 25 W 1008,8 59 0 0,0
14.03.2019 22:00:00 5,9 4,0 4,5 3,8 4,6 6,3 24 13 39 21 W 1007,6 51 0 0,0
14.03.2019 21:00:00 5,4 3,6 4,3 3,8 4,7 6,3 25 14 39 21 W 1006,6 70 0 0,0
14.03.2019 20:00:00 5,3 3,6 3,9 4,3 4,7 6,3 23 12 34 18 W 1005,4 70 0 0,0
14.03.2019 19:00:00 5,8 3,4 4,6 4,7 4,6 6,3 18 10 44 24 W 1004,1 70 0 0,0
14.03.2019 18:00:00 6,4 2,7 4,8 5,1 4,5 6,3 31 17 67 36 W 1003,0 58 0 2,9
14.03.2019 17:00:00 6,6 6,1 6,3 5,3 4,4 6,3 44 24 61 33 WSW 1001,1 5 0 1,4
14.03.2019 16:00:00 5,6 5,2 5,4 4,8 4,4 6,3 37 20 59 32 WSW 1002,3 3,4 0 2,1
14.03.2019 15:00:00 4,4 3,8 4,3 4,5 4,3 6,4 41 22 67 36 WSW 1003,3 5 0 3,0
14.03.2019 14:00:00 4,1 3,2 3,9 4,4 4,3 6,4 41 22 72 39 WSW 1004,3 6 0 2,6
14.03.2019 13:00:00 4,1 3,1 3,9 4,3 4,2 6,4 49 26 72 39 WSW 1005,6 5 0 2,1
14.03.2019 12:00:00 3,9 3,0 3,8 4,1 4,2 6,4 42 23 67 36 WSW 1006,9 6 0 1,7
14.03.2019 11:00:00 3,5 2,7 3,4 3,9 4,2 6,4 39 21 63 34 WSW 1008,5 8 0 1,1
14.03.2019 10:00:00 3,2 2,5 3,0 3,7 4,2 6,4 35 19 67 36 WSW 1010,3 6 0 1,4
14.03.2019 09:00:00 3,3 2,6 3,1 3,6 4,3 6,4 36 19 54 29 WSW 1011,4 5 0 0,9
14.03.2019 08:00:00 3,5 2,4 3,1 3,6 4,3 6,4 27 14 46 25 WSW 1012,1 7 0 0,1
14.03.2019 07:00:00 3,7 2,1 3,3 3,5 4,3 6,5 29 16 42 23 WSW 1012,8 14 0 0,0
14.03.2019 06:00:00 3,7 1,9 3,4 3,6 4,3 6,5 31 17 46 25 WSW 1013,8 16 0 0,0
14.03.2019 05:00:00 3,8 2,5 3,4 3,6 4,3 6,5 27 15 36 20 WSW 1014,2 14 0 0,0
14.03.2019 04:00:00 3,8 2,6 3,5 3,6 4,4 6,5 20 11 29 16 WSW 1014,5 15 0 0,0
14.03.2019 03:00:00 3,7 2,6 3,3 3,5 4,4 6,5 16 9 27 15 WSW 1015,0 17 0 0,0
14.03.2019 02:00:00 3,6 2,5 3,2 3,5 4,4 6,5 19 10 27 15 WSW 1014,9 26 0 0,0
14.03.2019 01:00:00 3,5 2,4 3,2 3,4 4,5 6,5 19 10 28 15 W 1014,6 31 0 0,0
14.03.2019 00:00:00 3,5 2,4 3,0 3,5 4,5 6,5 19 10 35 19 WSW 1014,1 40 0 0,0
13.03.2019 23:00:00 3,7 2,2 3,0 3,4 4,5 6,5 19 10 40 21 W 1013,5 67 0 0,0
13.03.2019 22:00:00 3,8 2,2 2,9 3,6 4,6 6,5 24 13 40 22 W 1012,6 26 0 0,2
13.03.2019 21:00:00 3,6 2,0 2,9 3,8 4,6 6,5 22 12 58 31 W 1012,1 70 0 2,5
13.03.2019 20:00:00 4,2 3,3 3,7 3,9 4,6 6,5 23 12 44 24 WSW 1010,9 12 0 0,1
13.03.2019 19:00:00 4,1 2,6 3,6 4,0 4,6 6,5 30 16 42 23 WSW 1010,5 44 0 0,0
13.03.2019 18:00:00 3,5 2,0 3,2 4,2 4,6 6,5 31 17 70 38 W 1010,5 70 0 0,5
13.03.2019 17:00:00 4,5 3,1 3,9 4,4 4,5 6,5 35 19 61 33 W 1010,2 3,6 0 0,6
13.03.2019 16:00:00 5,3 1,7 4,6 4,4 4,5 6,5 37 20 60 33 WSW 1009,8 41 0 0,1
13.03.2019 15:00:00 4,4 1,5 4,2 4,4 4,5 6,5 39 21 63 34 WSW 1010,5 33 0 0,0
13.03.2019 14:00:00 3,9 1,2 3,5 4,4 4,4 6,5 45 25 68 37 WSW 1010,8 23 0 0,0
13.03.2019 13:00:00 4,6 0,4 4,5 4,3 4,4 6,5 41 22 60 33 WSW 1011,2 28 0 0,0
13.03.2019 12:00:00 4,1 0,1 4,2 3,9 4,4 6,5 32 17 58 31 WSW 1011,6 39 0 0,0
13.03.2019 11:00:00 3,2 0,2 2,4 3,4 4,4 6,5 41 22 66 36 WSW 1012,0 20 0 0,0
13.03.2019 10:00:00 3,4 -0,1 2,6 3,4 4,4 6,6 35 19 54 29 WSW 1012,3 47 2 0,2
13.03.2019 09:00:00 3,4 -0,3 3,0 3,0 4,5 6,6 36 20 54 29 WSW 1012,2 48 0 0,0
13.03.2019 08:00:00 3,3 -0,3 2,8 3,0 4,5 6,6 32 17 55 30 WSW 1012,2 59 0 0,0
13.03.2019 07:00:00 3,4 0,1 2,7 3,0 4,6 6,6 36 19 63 34 WSW 1011,8 35 0 0,0
13.03.2019 06:00:00 3,6 0,4 3,0 3,2 4,7 6,6 34 18 51 28 WSW 1011,7 62 0 0,0

tt = Température de l'air
td = dewpoint
tt 5cm = Température de l'air 5cm
tt -5cm = Température de l'air -5cm
tt -20cm = Température de l'air -20cm
tt -100cm = Température de l'air -100cm
ff = Vitesse du vent
fx = gusts
dd = Direction du vent
ppp = reduced air pressure
vv = visibility
sd = Ensoleillement
rr = Quantités de précipitations

stations d'obs. à proximité